Temp
83 86 83 83 83 83 83 83 83 83 83 83 83 83 83 83 83 83 83 84 84 84 84 84 84 84 84 84 84 84 84 84 84 83 83 83 83 82 83 83 84 89 82
87 88 82 83 83 83 83 83 83 83 83 83 83 84 84 83 83 83 83 84 84 84 84 84 84 84 84 84 84 84 84 84 84 84 84 84 84 83 83 83 84 86 83
87 88 86 83 83 83 83 83 83 83 84 83 84 84 84 84 84 84 84 84 84 84 84 84 84 84 84 84 83 83 83 84 84 83 84 90 88 83 83 84 83 83 83
88 89 89 82 83 83 83 83 83 84 84 84 84 84 84 84 84 84 84 84 84 84 85 85 84 85 84 84 84 83 83 83 83 83 89 90 90 83 83 83 82 82 83
87 88 87 83 83 83 83 83 84 84 84 84 84 84 84 84 84 85 84 84 84 84 84 84 84 84 84 84 83 83 83 83 82 85 86 87 90 85 83 83 83 82 84
87 89 85 83 83 83 83 84 84 84 84 84 84 84 84 84 84 84 84 84 84 84 84 84 84 84 84 83 83 83 83 82 82 87 87 85 88 84 83 83 83 82 82
87 88 87 83 83 83 83 84 84 84 84 84 84 84 84 84 85 84 84 84 84 84 84 84 84 84 84 83 83 83 83 82 86 86 85 88 87 83 83 83 82 82 82
86 89 88 83 83 83 83 84 84 84 84 83 84 84 84 84 84 84 84 84 84 84 83 84 84 84 83 83 83 83 83 83 86 86 86 88 81 82 83 83 82 82 82
88 88 87 88 85 84 84 84 84 84 84 84 84 84 84 84 84 84 84 84 84 85 84 84 84 83 83 83 83 83 83 81 87 88 88 89 79 82 83 83 82 82 82
86 87 85 85 87 86 88 84 84 84 84 84 84 84 84 84 85 85 84 84 84 84 84 83 83 83 83 83 83 83 83 82 88 87 88 90 79 81 83 83 82 82 82
84 86 88 87 87 86 87 87 85 84 84 84 84 84 84 82 80 81 81 83 83 83 83 84 83 83 83 83 83 83 83 90 88 90 90 79 79 81 83 83 82 82 82
82 84 87 88 88 87 88 86 86 88 86 86 86 86 81 81 74 78 83 84 83 83 84 84 82 83 84 88 88 85 89 89 88 89 90 78 79 81 83 83 82 82 82
84 85 85 85 85 86 86 86 87 88 88 87 85 85 86 78 79 77 82 86 86 83 85 86 85 86 87 87 87 88 88 88 90 89 87 79 80 81 83 83 83 82 82
83 84 85 85 83 84 86 86 87 87 87 86 87 85 84 81 82 77 77 77 77 77 79 78 85 82 84 85 85 86 88 87 88 89 87 80 80 81 82 83 83 83 82
83 84 84 83 82 83 82 85 86 85 86 88 87 85 84 82 83 80 79 79 77 77 75 77 81 85 84 83 85 85 87 87 86 87 88 81 80 81 82 83 83 83 83
83 84 85 83 82 82 82 82 84 85 85 85 86 86 84 84 84 80 80 80 73 75 77 82 81 83 84 85 84 84 85 86 86 85 88 89 80 81 81 83 83 83 83
82 82 83 82 84 81 82 83 84 85 87 85 85 85 84 83 83 81 79 83 76 76 74 80 76 76 82 84 83 85 85 85 87 85 86 88 89 80 81 82 83 82 83
83 79 76 83 85 82 82 83 84 85 85 85 85 86 84 83 82 79 83 83 83 78 82 74 81 79 81 82 82 84 85 86 86 86 87 88 89 91 85 81 81 82 82
84 81 82 83 84 82 82 82 82 82 83 85 86 85 84 84 83 82 84 84 82 83 83 81 81 79 80 80 81 84 85 85 86 89 88 86 89 88 90 85 81 81 83
84 83 84 85 82 81 81 80 83 83 83 83 83 83 83 84 83 82 82 81 82 79 82 81 80 80 81 78 79 77 79 84 79 87 88 88 90 90 91 88 89 88 81
83 82 83 82 81 79 79 81 76 81 81 79 82 82 81 82 81 82 84 83 80 81 80 79 80 79 81 82 77 77 80 76 77 86 88 89 89 89 90 89 88 90 90
83 82 81 81 80 81 82 79 81 75 71 73 74 79 79 82 82 82 81 84 83 83 80 79 79 78 80 81 77 76 75 74 76 85 82 84 87 89 90 89 89 86 88
81 82 82 80 78 79 80 77 77 75 72 71 71 70 74 82 82 82 82 82 81 82 79 79 77 78 75 77 79 75 74 72 79 84 83 81 85 83 84 83 84 87 86
84 83 82 80 80 81 80 80 76 73 69 70 70 73 78 78 79 81 81 80 80 84 81 82 80 79 79 77 75 80 76 78 77 73 83 86 85 84 85 85 88 83 85
85 83 81 80 80 79 80 79 77 73 72 74 75 75 76 78 78 77 77 79 79 81 81 79 78 77 78 80 80 76 74 77 78 77 77 76 84 87 87 87 89 88 82
84 83 81 79 79 79 79 80 77 76 76 76 77 77 79 77 80 78 77 78 78 77 78 79 79 76 77 76 77 75 74 74 72 73 77 78 80 85 88 89 88 87 83
MSLP
1014.69 1014.93 1015.47 1015.52 1015.68 1015.90 1016.05 1016.19 1016.32 1016.52 1016.73 1016.87 1017.04 1017.15 1017.24 1017.42 1017.67 1017.65 1017.64 1017.75 1017.88 1017.93 1017.99 1017.99 1018.10 1018.28 1018.39 1018.55 1018.66 1018.76 1018.86 1018.94 1019.06 1019.24 1019.36 1019.59 1019.78 1019.91 1019.95 1020.07 1020.02 1019.94 1020.52
1014.19 1014.84 1015.52 1015.65 1015.79 1016.02 1016.23 1016.38 1016.55 1016.79 1016.99 1017.13 1017.25 1017.37 1017.49 1017.61 1017.81 1017.76 1017.80 1017.90 1018.12 1018.15 1018.11 1018.25 1018.37 1018.48 1018.65 1018.79 1018.92 1019.07 1019.17 1019.19 1019.28 1019.35 1019.55 1019.74 1019.94 1020.15 1020.32 1020.35 1020.27 1020.57 1020.78
1014.23 1014.88 1015.45 1015.75 1015.94 1016.20 1016.43 1016.61 1016.78 1017.00 1017.21 1017.39 1017.49 1017.51 1017.57 1017.66 1017.80 1017.91 1018.11 1018.19 1018.23 1018.33 1018.38 1018.44 1018.53 1018.69 1018.85 1019.04 1019.22 1019.35 1019.45 1019.47 1019.55 1019.76 1019.79 1019.44 1019.89 1020.35 1020.45 1020.48 1020.69 1020.80 1021.00
1014.22 1014.82 1015.35 1015.87 1016.13 1016.37 1016.62 1016.83 1017.04 1017.25 1017.45 1017.60 1017.68 1017.63 1017.72 1017.83 1017.96 1018.14 1018.20 1018.29 1018.38 1018.48 1018.56 1018.57 1018.72 1018.78 1019.06 1019.30 1019.45 1019.57 1019.65 1019.73 1019.89 1020.05 1019.69 1019.66 1019.86 1020.56 1020.65 1020.83 1021.00 1021.03 1021.16
1014.56 1014.99 1015.53 1016.07 1016.30 1016.59 1016.78 1017.05 1017.31 1017.48 1017.68 1017.76 1017.90 1017.93 1017.98 1018.14 1018.21 1018.27 1018.40 1018.54 1018.74 1018.80 1018.80 1018.88 1018.98 1019.14 1019.38 1019.60 1019.72 1019.88 1019.95 1020.13 1020.32 1020.20 1020.24 1020.19 1020.07 1020.85 1020.93 1021.03 1021.09 1021.23 1021.10
1014.74 1015.18 1015.81 1016.18 1016.45 1016.74 1016.97 1017.24 1017.51 1017.73 1017.84 1018.02 1018.16 1018.20 1018.30 1018.34 1018.40 1018.58 1018.67 1018.80 1018.89 1018.98 1019.10 1019.18 1019.27 1019.35 1019.53 1019.75 1019.95 1020.13 1020.24 1020.37 1020.49 1020.39 1020.42 1020.68 1020.35 1020.95 1021.09 1021.16 1021.20 1021.37 1021.50
1014.76 1015.33 1015.86 1016.27 1016.51 1016.85 1017.04 1017.26 1017.63 1017.88 1017.98 1018.13 1018.26 1018.37 1018.52 1018.59 1018.68 1018.82 1018.93 1018.99 1019.04 1019.27 1019.29 1019.35 1019.48 1019.59 1019.67 1019.88 1020.09 1020.28 1020.35 1020.44 1020.29 1020.50 1020.62 1020.46 1020.63 1021.14 1021.26 1021.38 1021.49 1021.60 1021.65
1014.87 1015.28 1015.80 1016.42 1016.63 1016.89 1017.09 1017.25 1017.55 1017.88 1018.06 1018.24 1018.40 1018.55 1018.65 1018.82 1018.94 1018.99 1019.09 1019.19 1019.28 1019.43 1019.55 1019.55 1019.60 1019.68 1019.84 1020.00 1020.17 1020.32 1020.45 1020.49 1020.34 1020.43 1020.59 1020.65 1021.19 1021.27 1021.37 1021.47 1021.63 1021.77 1021.87
1015.04 1015.32 1015.80 1016.19 1016.62 1016.97 1017.15 1017.36 1017.56 1017.73 1018.00 1018.29 1018.47 1018.66 1018.78 1018.89 1019.00 1019.08 1019.29 1019.36 1019.38 1019.49 1019.63 1019.72 1019.81 1019.85 1019.98 1020.14 1020.23 1020.38 1020.45 1020.57 1020.29 1020.33 1020.52 1020.70 1021.27 1021.23 1021.35 1021.50 1021.59 1021.70 1021.83
1015.24 1015.57 1015.96 1016.24 1016.52 1016.83 1017.04 1017.33 1017.49 1017.73 1018.00 1018.32 1018.53 1018.66 1018.71 1018.87 1018.96 1019.22 1019.36 1019.50 1019.51 1019.52 1019.62 1019.76 1019.92 1019.95 1019.97 1020.16 1020.28 1020.37 1020.43 1020.56 1020.32 1020.43 1020.54 1020.56 1021.20 1021.22 1021.29 1021.45 1021.59 1021.70 1021.84
1015.25 1015.43 1015.68 1016.17 1016.51 1016.82 1016.98 1017.22 1017.51 1017.64 1017.95 1018.23 1018.46 1018.62 1018.76 1018.86 1019.10 1019.20 1019.24 1019.25 1019.44 1019.57 1019.60 1019.68 1019.85 1019.95 1020.01 1020.08 1020.27 1020.36 1020.38 1020.06 1020.23 1020.25 1020.30 1020.85 1021.14 1021.22 1021.23 1021.40 1021.54 1021.70 1021.89
1014.66 1015.14 1015.49 1015.78 1016.18 1016.76 1017.02 1017.30 1017.52 1017.51 1017.80 1017.97 1018.22 1018.40 1018.67 1018.88 1019.20 1019.19 1019.06 1019.11 1019.25 1019.40 1019.38 1019.49 1019.60 1019.73 1019.83 1019.67 1019.74 1020.12 1019.79 1019.91 1020.05 1020.02 1020.19 1020.86 1021.00 1021.12 1021.20 1021.35 1021.51 1021.72 1021.88
1014.41 1014.89 1015.34 1015.81 1016.24 1016.61 1016.87 1017.17 1017.42 1017.48 1017.67 1017.89 1018.14 1018.32 1018.36 1018.58 1018.94 1019.07 1019.07 1018.94 1018.98 1019.26 1019.13 1019.08 1019.17 1019.34 1019.17 1019.41 1019.56 1019.61 1019.71 1019.82 1019.68 1019.90 1019.96 1020.67 1020.86 1020.99 1021.07 1021.17 1021.38 1021.58 1021.78
1014.15 1014.78 1015.42 1015.85 1016.35 1016.54 1016.67 1017.01 1017.25 1017.42 1017.64 1017.73 1017.87 1018.28 1018.38 1018.57 1018.72 1018.88 1019.00 1019.02 1019.20 1019.24 1019.29 1019.31 1018.94 1019.27 1019.26 1019.24 1019.33 1019.44 1019.41 1019.57 1019.65 1019.63 1019.81 1020.37 1020.52 1020.67 1020.78 1020.88 1021.01 1021.26 1021.51
1014.43 1014.94 1015.27 1015.75 1016.31 1016.60 1016.96 1016.94 1017.07 1017.36 1017.58 1017.72 1017.83 1018.06 1018.33 1018.46 1018.32 1018.51 1018.58 1018.73 1018.94 1019.17 1019.23 1019.18 1018.95 1018.66 1018.75 1019.05 1019.11 1019.11 1019.07 1019.09 1019.34 1019.43 1019.43 1019.91 1020.16 1020.29 1020.42 1020.50 1020.64 1020.81 1021.11
1014.17 1014.43 1014.80 1015.11 1015.41 1016.11 1016.61 1016.92 1017.11 1017.22 1017.50 1017.88 1017.83 1017.89 1018.08 1018.15 1018.12 1018.17 1018.16 1018.37 1018.73 1018.90 1018.98 1018.67 1018.61 1018.43 1018.44 1018.53 1018.68 1018.80 1018.77 1018.79 1018.92 1019.10 1019.00 1018.99 1019.62 1019.80 1019.93 1020.03 1020.10 1020.40 1020.68
1013.94 1014.41 1014.58 1014.82 1014.87 1015.54 1015.97 1016.45 1016.84 1016.99 1017.15 1017.55 1017.67 1017.75 1017.89 1017.89 1017.71 1017.89 1017.93 1017.92 1018.31 1018.60 1018.81 1018.47 1018.68 1018.75 1018.25 1018.16 1018.26 1018.22 1018.32 1018.37 1018.36 1018.58 1018.72 1018.60 1018.49 1019.19 1019.36 1019.57 1019.68 1019.90 1020.15
1013.68 1014.04 1014.03 1014.65 1014.93 1015.31 1015.50 1016.10 1016.52 1016.84 1017.05 1017.25 1017.39 1017.45 1017.53 1017.63 1017.67 1017.68 1017.67 1017.51 1017.66 1018.23 1018.10 1018.49 1018.14 1018.12 1018.00 1017.92 1017.85 1017.74 1017.68 1017.83 1017.83 1017.95 1018.09 1018.16 1018.10 1018.06 1018.55 1018.87 1019.17 1019.47 1019.62
1013.13 1013.69 1013.82 1014.56 1014.98 1015.53 1015.63 1015.90 1016.38 1016.69 1016.89 1016.95 1017.02 1016.99 1017.06 1017.14 1017.29 1017.42 1017.22 1016.99 1017.30 1017.40 1017.39 1017.76 1017.81 1017.85 1017.55 1017.52 1017.46 1017.33 1017.30 1017.36 1017.31 1017.15 1017.26 1017.58 1017.51 1017.77 1017.65 1017.92 1018.41 1018.61 1018.85
1012.88 1013.32 1013.85 1014.41 1015.06 1015.62 1015.90 1016.26 1016.17 1016.51 1016.75 1016.91 1017.00 1016.91 1016.86 1016.65 1016.81 1016.98 1016.81 1016.72 1016.91 1017.02 1016.97 1017.22 1017.31 1017.29 1017.19 1017.13 1017.31 1017.24 1017.07 1016.93 1017.20 1016.65 1016.59 1016.89 1016.87 1016.92 1017.02 1017.38 1017.45 1017.63 1018.03
1012.78 1013.26 1013.77 1014.50 1015.11 1015.53 1015.87 1015.91 1016.37 1016.28 1016.67 1016.95 1016.70 1016.41 1016.18 1016.24 1016.35 1016.44 1016.05 1016.12 1016.40 1016.42 1016.26 1016.42 1016.78 1016.84 1016.82 1017.00 1017.20 1016.94 1016.52 1016.60 1016.53 1015.99 1015.85 1015.93 1016.08 1016.31 1016.49 1016.68 1016.96 1016.88 1016.85
1012.62 1013.21 1013.86 1014.30 1014.68 1015.03 1015.38 1015.72 1015.80 1016.40 1016.52 1016.49 1016.63 1016.19 1016.06 1015.80 1015.73 1015.65 1015.54 1015.53 1015.60 1015.75 1015.76 1015.93 1016.21 1016.22 1016.34 1016.60 1016.43 1016.51 1016.04 1016.07 1015.84 1015.41 1015.68 1015.69 1015.55 1015.62 1015.70 1015.95 1016.15 1016.51 1016.49
1012.12 1012.68 1013.41 1013.86 1014.34 1014.69 1015.00 1015.37 1015.83 1016.08 1015.92 1016.06 1015.94 1015.87 1015.13 1015.37 1015.08 1014.86 1014.56 1014.60 1014.90 1014.98 1014.80 1014.87 1015.30 1015.53 1015.60 1016.04 1016.15 1016.00 1015.71 1015.34 1015.10 1014.88 1015.03 1015.29 1015.18 1015.43 1015.38 1015.56 1015.59 1015.67 1015.96
1011.57 1012.29 1012.93 1013.42 1013.80 1014.17 1014.64 1014.78 1015.03 1015.23 1015.71 1015.59 1015.87 1015.66 1015.18 1014.96 1014.58 1014.36 1014.03 1013.89 1014.11 1014.07 1014.05 1014.23 1014.66 1014.99 1015.46 1015.51 1015.93 1015.60 1015.56 1015.47 1015.05 1014.72 1014.64 1014.57 1014.78 1014.85 1014.71 1014.77 1014.60 1014.88 1015.16
1011.04 1011.96 1012.78 1013.19 1013.57 1014.12 1014.37 1014.52 1014.67 1014.77 1015.12 1015.52 1015.39 1015.13 1014.98 1014.75 1014.40 1014.12 1013.78 1013.28 1013.33 1013.42 1013.38 1013.73 1014.03 1014.52 1014.82 1014.88 1015.00 1015.20 1015.32 1015.43 1015.45 1015.08 1014.27 1014.29 1014.26 1014.03 1014.08 1014.07 1013.77 1014.03 1014.70
1011.03 1011.84 1012.60 1013.16 1013.57 1013.97 1014.21 1014.26 1014.40 1014.73 1015.03 1015.31 1015.32 1015.11 1014.74 1014.70 1014.15 1013.80 1013.36 1012.91 1012.83 1012.87 1012.94 1013.23 1013.67 1014.16 1014.30 1014.59 1014.66 1014.66 1014.56 1014.66 1014.89 1014.93 1014.41 1014.02 1013.72 1013.32 1013.30 1013.37 1013.35 1013.34 1013.75
Wind_Speed
13 14 14 13 14 15 15 14 14 15 16 16 15 14 13 14 12 13 13 14 13 12 12 13 14 13 13 13 14 14 15 15 15 15 15 15 14 13 13 14 12 15 13
18 15 13 13 15 14 15 15 15 15 15 15 14 13 12 13 13 12 13 14 13 12 13 13 13 13 13 13 13 14 14 13 14 15 15 14 14 14 13 12 8 13 13
19 16 15 13 14 15 15 15 15 15 15 14 13 13 12 13 14 12 13 13 13 12 12 13 12 13 12 12 12 11 11 12 12 13 9 9 12 12 12 13 13 13 13
18 16 15 13 13 15 16 14 15 15 14 12 12 12 12 12 12 13 12 12 12 12 13 11 11 10 11 11 11 10 10 10 12 11 7 8 10 11 11 12 13 12 13
17 15 14 13 13 15 16 14 13 14 13 12 11 11 12 12 10 11 11 10 11 12 12 11 10 9 9 9 10 10 10 9 10 7 7 6 7 11 12 12 12 11 8
16 15 16 15 14 13 13 15 14 13 12 11 10 9 11 11 10 8 10 9 10 11 11 10 9 10 10 8 7 6 5 7 5 6 6 8 6 11 10 11 10 12 10
17 14 15 15 15 14 13 14 13 12 11 10 9 9 10 9 9 9 8 8 7 9 11 12 11 9 10 8 6 3 5 4 5 5 5 6 8 9 9 10 10 9 10
17 15 15 14 14 14 13 13 14 12 11 10 9 8 8 8 7 8 7 7 6 6 8 9 9 10 9 8 6 5 4 2 5 5 5 4 5 5 8 8 8 8 8
15 14 13 14 13 14 14 13 13 12 12 10 9 8 8 7 7 6 6 6 6 7 7 7 8 8 8 8 7 6 3 3 3 3 5 4 4 5 6 5 6 7 6
14 13 13 12 13 11 11 14 14 13 12 11 10 9 9 8 7 6 6 6 7 6 7 7 7 6 8 8 7 6 5 4 2 5 3 3 3 2 6 5 4 4 6
12 14 14 14 13 11 10 10 12 14 13 11 10 10 8 3 1 4 5 7 6 5 6 7 9 9 8 9 8 7 6 3 3 3 3 7 6 5 5 6 7 6 4
17 16 14 14 13 12 8 9 10 9 8 8 8 8 5 5 5 8 8 9 8 6 6 8 10 10 10 6 6 8 5 5 5 5 4 6 8 9 8 8 7 7 7
15 13 14 13 12 12 9 7 6 6 6 7 10 9 8 4 3 3 5 6 6 6 5 6 6 7 8 6 6 6 6 6 5 5 6 8 10 12 11 11 11 10 10
16 14 12 12 11 12 8 7 7 7 7 6 8 9 7 4 6 4 4 5 4 2 4 4 5 5 9 10 9 8 9 6 5 5 6 10 12 13 14 14 14 13 13
12 11 12 11 11 10 10 8 7 8 7 8 8 9 8 7 8 6 6 4 4 4 4 4 6 7 6 8 8 8 9 9 8 6 5 11 14 15 16 17 16 16 15
12 12 13 14 13 12 11 11 8 7 8 7 7 8 10 9 9 7 6 6 4 3 5 5 5 6 6 6 8 8 9 8 8 9 7 8 15 16 17 18 18 17 17
10 11 13 14 14 14 14 11 9 8 7 7 8 9 11 10 11 9 6 7 4 4 5 7 6 5 6 6 9 8 8 9 9 10 8 8 8 17 17 16 16 16 18
12 15 12 10 11 13 12 9 8 7 6 7 7 8 10 11 12 8 8 9 6 5 6 5 7 6 7 7 7 7 7 8 10 11 9 8 8 7 13 15 16 18 19
15 14 15 9 10 10 9 7 8 8 6 7 8 8 11 11 12 10 9 9 7 7 6 7 7 8 8 7 7 8 8 8 9 9 11 10 11 9 8 10 16 18 19
13 13 12 9 7 6 4 5 5 4 4 6 8 9 12 10 13 11 9 11 8 8 8 8 10 8 7 5 5 5 6 8 7 10 11 10 11 11 11 11 9 11 20
11 11 10 9 7 6 4 4 1 3 5 6 7 11 11 10 12 12 10 10 9 10 11 10 9 9 7 5 4 6 8 8 10 10 10 10 12 11 11 10 8 8 9
12 11 8 8 8 7 5 4 4 4 4 5 4 7 7 10 12 12 13 12 12 10 12 11 11 7 6 6 4 4 4 3 6 11 8 10 13 10 11 12 12 11 11
9 9 9 9 8 7 8 6 7 4 1 2 3 4 8 10 12 14 15 13 12 11 10 10 10 11 7 6 10 5 3 3 2 3 7 9 10 8 8 9 10 12 12
11 8 8 9 9 7 10 9 11 5 3 4 3 5 8 10 12 13 14 14 14 11 11 10 9 10 8 8 4 9 6 3 3 2 2 3 5 8 10 10 12 9 11
9 10 10 9 9 9 9 8 7 6 4 4 6 9 10 9 9 10 12 13 13 11 12 10 10 11 8 9 9 4 7 7 7 7 8 3 3 5 6 7 9 10 12
7 9 10 9 8 9 9 7 5 6 5 5 5 5 5 6 6 9 10 10 10 10 11 10 10 9 10 9 8 7 6 4 7 7 8 8 7 6 5 6 7 8 10
Wind_Direction
158 149 150 142 132 130 131 126 120 121 123 126 131 125 118 118 121 125 121 115 114 114 109 102 112 112 109 108 108 106 106 110 111 110 111 109 105 104 107 107 136 108 113
149 149 156 147 134 134 134 131 130 128 129 131 131 130 132 125 120 123 119 121 122 122 114 116 112 111 111 111 109 110 110 111 110 108 112 103 109 109 110 107 90 102 106
147 147 155 149 137 134 136 138 137 138 133 135 138 135 130 132 126 122 121 123 119 115 110 107 112 113 118 110 108 112 114 112 103 101 104 109 105 109 107 114 115 118 114
145 149 152 141 140 136 140 140 142 143 141 141 139 131 122 120 127 132 122 126 127 128 121 120 109 117 106 108 105 98 97 103 102 110 106 107 107 104 110 116 114 113 112
148 149 147 145 144 145 145 145 146 148 148 144 134 133 129 130 128 127 127 123 116 116 117 121 126 122 122 117 105 97 95 99 102 113 107 108 117 120 124 124 123 119 115
150 155 148 151 145 149 144 147 152 156 156 146 145 147 142 136 132 129 136 136 142 138 136 137 138 142 140 130 118 110 110 105 129 110 123 112 107 116 119 118 114 121 120
153 157 155 157 154 155 155 158 158 162 164 160 158 157 149 142 143 139 139 139 144 147 150 149 150 154 146 141 137 124 125 127 142 125 121 116 120 130 124 126 121 123 125
156 161 157 164 164 161 162 162 165 170 176 175 175 168 156 148 148 146 149 153 154 146 155 149 152 161 159 151 153 151 160 134 171 143 133 138 94 135 128 127 128 125 124
164 164 166 170 172 171 171 172 174 178 182 183 181 175 170 166 165 164 164 168 173 172 169 170 176 167 174 175 171 172 177 125 182 174 160 170 127 174 132 134 135 126 132
171 174 175 179 179 182 181 185 185 187 190 192 191 186 186 188 193 190 182 197 194 203 192 200 192 200 188 186 185 187 176 159 154 177 185 157 206 234 157 158 158 154 144
183 188 186 187 192 196 195 194 201 198 197 198 204 205 203 185 215 239 226 222 227 234 241 225 215 207 202 203 194 200 211 207 215 217 210 146 203 221 214 192 189 188 175
190 193 195 200 199 201 211 208 209 213 210 209 214 213 202 203 186 222 231 236 241 240 253 240 240 225 211 216 210 218 237 230 226 233 230 198 208 217 224 219 210 202 198
195 196 199 202 205 208 211 212 215 213 217 218 221 223 228 210 232 237 226 227 229 239 263 250 229 237 234 221 225 242 239 240 241 238 237 205 220 223 225 223 222 223 221
197 201 200 206 209 212 209 213 218 226 224 230 228 230 235 236 238 231 241 220 226 229 261 269 240 229 226 230 231 240 243 235 238 239 232 223 225 223 227 230 224 223 225
200 199 199 200 213 220 224 223 225 231 234 241 241 234 238 244 247 249 226 232 225 230 261 232 239 234 230 219 225 236 240 238 238 235 235 219 229 229 228 230 233 227 225
202 203 198 199 197 206 223 226 234 233 246 253 251 252 241 247 252 249 245 233 215 214 243 242 243 239 240 237 229 228 240 237 232 233 235 230 222 232 234 233 230 229 225
201 195 207 208 200 204 210 226 232 240 241 253 257 258 256 251 254 256 257 254 228 211 226 247 233 236 234 232 239 234 236 234 237 235 236 245 224 223 236 231 227 224 226
197 199 207 205 216 211 207 216 233 243 246 259 267 264 261 261 258 255 257 256 243 225 241 227 234 239 234 229 235 233 234 240 239 238 238 235 231 234 208 231 227 229 228
209 207 227 203 224 225 220 214 221 239 252 265 271 267 266 264 259 251 253 260 245 235 231 234 228 228 231 224 233 234 235 243 245 239 235 234 231 227 235 214 225 228 228
212 216 222 224 228 220 206 219 230 241 288 294 283 276 276 274 263 246 250 257 233 241 233 231 237 219 238 228 223 256 260 251 226 242 237 234 236 236 237 235 232 226 224
208 214 213 209 203 170 180 205 164 323 5 328 309 293 277 267 260 250 247 247 234 233 234 219 232 236 227 225 240 241 249 230 233 238 228 232 234 235 238 236 233 234 218
192 200 186 187 191 194 180 138 118 122 239 247 260 300 290 271 259 249 247 250 236 236 229 221 214 216 234 211 234 252 271 211 234 232 224 228 235 235 237 233 235 233 231
200 193 194 189 181 182 173 140 144 185 224 310 188 245 289 300 290 267 254 245 243 235 237 214 210 214 223 203 223 230 211 246 293 163 216 225 239 238 249 238 233 233 232
203 184 168 178 167 155 170 179 186 208 188 216 271 258 284 303 292 281 264 252 242 237 235 225 204 225 226 229 212 232 252 294 274 282 178 207 223 244 239 238 245 234 231
194 174 161 162 167 160 170 180 191 201 213 279 294 296 298 301 291 293 279 256 241 231 230 222 204 208 214 236 230 197 224 236 247 258 274 257 229 243 246 246 242 237 227
176 164 157 164 169 164 165 158 178 219 225 237 256 276 313 309 323 315 289 272 247 228 220 215 213 203 214 225 224 224 210 188 209 217 241 261 269 274 262 250 245 239 237